Regional Weather Roundup
Issued by NWS

Home | Current Version | Previous Version | Graphics & Text | Print | Product List | Glossary On
Versions: 1 2 3 4 5 6 7 8 9 10 11 12 13 14 15 16 17 18 19 20 21 22 23 24 25 26 27
000
ASUS45 KSLC 231710
RWRUT

UTAH REGIONAL WEATHER ROUNDUP
NATIONAL WEATHER SERVICE SALT LAKE CITY UT
1100 AM MDT SUN JUL 23 2017

UTZ001>011-023>025-231800-

NORTHERN UTAH

CITY           SKY/WX    TMP DP  RH WIND       PRES   REMARKS
BRIGHAM CITY     N/A     82  41  23 NW6       30.12R
HILL AFB       SUNNY     83  44  25 E9        30.13S
LOGAN            N/A     78  42  27 VRB3      30.16F
OGDEN            N/A     86  45  23 N6        30.09S
SALT LAKE CITY   N/A     87  46  24 S6        30.07F
TOOELE VALLEY    N/A     86  48  26 NW5       30.09F
WENDOVER         N/A     86  30  13 S7        30.11R
HEBER CITY       N/A     77  43  29 NW3       30.19F
WEST JORDAN      N/A     83  55  38 E5        30.11F

$$

UTZ011>015-024>027-231800-

CENTRAL/NORTHEAST UTAH

CITY           SKY/WX    TMP DP  RH WIND       PRES   REMARKS
PROVO AIRPORT    N/A     79  56  45 W3        30.12S
MOAB/CANYONLAN   N/A     86  51  29 CALM      30.11F
DELTA            N/A     88  41  19 NE5       30.11F
PRICE            N/A     82  46  28 S5        30.22F
RICHFIELD      SUNNY     82  48  30 CALM      30.17F
ROOSEVELT      SUNNY     81  43  26 CALM      30.20S
VERNAL         SUNNY     81  42  25 CALM      30.19F

$$

UTZ013>016-019>022-027-231800-

SOUTHERN UTAH

CITY           SKY/WX    TMP DP  RH WIND       PRES   REMARKS
BRYCE CANYON     N/A     75  46  35 VRB5      30.35F
CEDAR CITY       N/A     85  45  24 CALM      30.16F
MILFORD          N/A     89  46  22 CALM      30.11F
ST GEORGE        N/A     91  52  26 VRB3      29.96F
HANKSVILLE       N/A     86  45  23 CALM      30.13S
KANAB          SUNNY     88  52  29 NE8       30.16S
BLANDING         N/A     79  49  35 E10       30.31S

$$

REGIONAL REPORTS     COLORADO/ARIZONA

CITY           SKY/WX    TMP DP  RH WIND       PRES   REMARKS
CRAIG, CO      SUNNY     80  40  23 CALM      30.26F
GRAND JUNCTION SUNNY     84  47  27 SE6       30.15F
RIFLE, CO      SUNNY     80  46  30 VRB5      30.21F
MONTROSE, CO   SUNNY     79  50  36 NW8       30.24F
CORTEZ, CO     SUNNY     82  51  34 E3        30.23F
COLORADO CITY    N/A     88  54  31 CALM      30.14F
PAGE, AZ         N/A     88  54  31 N7        30.08F
GRAND CANYON     N/A     81  50  33 MISG      30.26S
KINGMAN, AZ      N/A     89  60  37 W10       30.02S
FLAGSTAFF, AZ    N/A     75  55  49 SE9       30.29S

$$

REGIONAL REPORTS    NEVADA/IDAHO/WYOMING

CITY           SKY/WX    TMP DP  RH WIND       PRES   REMARKS
LAS VEGAS, NV    N/A     97  57  26 CALM      29.89S HX  96
ELY, NY          N/A    N/A N/A N/A N6        30.24S
ELKO, NV         N/A     85  32  15 CALM      30.14F
POCATELLO, ID  MOSUNNY   79  49  34 N9        30.13R
BURLEY, ID       N/A     79  44  28 SE3       30.10F
FORT BRIDGER,    N/A     79  30  17 NE3       30.34F
EVANSTON, WY   SUNNY     76  38  25 VRB3      30.32F
ROCK SPRINGS,  CLOUDY    78  32  18 CALM      30.29F
KEMMERER, WY     N/A     77  32  19 CALM      30.34F

$$




USA.gov is the U.S. government's official web portal to all federal, state and local government web resources and services.